Time,TemperatureF,DewpointF,PressureIn,WindDirection,WindDirectionDegrees,WindSpeedMPH,WindSpeedGustMPH,Humidity,HourlyPrecipIn,Conditions,Clouds,dailyrainin,SoftwareType,DateUTC
2013-05-03 00:01:00,66.9,41.9,30.16,SE,130,2.0,10.0,40,0.00,,,0.00,meteohub,2013-05-03 04:01:00,
2013-05-03 00:02:00,66.9,41.9,30.16,ESE,116,4.0,10.0,40,0.00,,,0.00,meteohub,2013-05-03 04:02:00,
2013-05-03 00:07:00,66.7,41.7,30.16,SE,126,0.0,10.0,40,0.00,,,0.00,meteohub,2013-05-03 04:07:00,
2013-05-03 00:12:00,66.6,42.8,30.16,SE,144,1.0,10.0,42,0.00,,,0.00,meteohub,2013-05-03 04:12:00,
2013-05-03 00:17:00,66.6,42.1,30.16,SSE,157,4.0,10.0,41,0.00,,,0.00,meteohub,2013-05-03 04:17:00,
2013-05-03 00:22:00,66.6,42.1,30.16,SE,136,4.0,8.0,41,0.00,,,0.00,meteohub,2013-05-03 04:22:00,
2013-05-03 00:27:00,66.4,41.9,30.16,SSW,197,2.0,7.0,41,0.00,,,0.00,meteohub,2013-05-03 04:27:00,
2013-05-03 00:32:00,66.0,41.7,30.16,SSE,152,3.0,7.0,41,0.00,,,0.00,meteohub,2013-05-03 04:32:00,
2013-05-03 00:37:00,66.4,41.9,30.16,SE,145,6.0,9.0,41,0.00,,,0.00,meteohub,2013-05-03 04:37:00,
2013-05-03 00:42:00,66.4,41.9,30.16,SSE,150,4.0,12.0,41,0.00,,,0.00,meteohub,2013-05-03 04:42:00,
2013-05-03 00:47:00,66.2,41.7,30.16,South,186,2.0,12.0,41,0.00,,,0.00,meteohub,2013-05-03 04:47:00,
2013-05-03 00:52:00,66.0,41.7,30.16,SSE,156,4.0,12.0,41,0.00,,,0.00,meteohub,2013-05-03 04:52:00,
2013-05-03 00:57:00,65.8,41.5,30.16,SE,134,4.0,12.0,41,0.00,,,0.00,meteohub,2013-05-03 04:57:00,
2013-05-03 01:02:00,65.8,41.5,30.16,SE,141,5.0,13.0,41,0.00,,,0.00,meteohub,2013-05-03 05:02:00,
2013-05-03 01:07:00,65.7,41.9,30.16,SSE,162,6.0,14.0,42,0.00,,,0.00,meteohub,2013-05-03 05:07:00,
2013-05-03 01:12:00,65.5,41.7,30.16,SSE,147,4.0,14.0,42,0.00,,,0.00,meteohub,2013-05-03 05:12:00,
2013-05-03 01:17:00,65.3,42.3,30.15,SSE,166,5.0,14.0,43,0.00,,,0.00,meteohub,2013-05-03 05:17:00,
2013-05-03 01:22:00,65.1,42.1,30.15,SW,227,4.0,16.0,43,0.00,,,0.00,meteohub,2013-05-03 05:22:00,
2013-05-03 01:27:00,65.1,42.1,30.15,SSE,154,5.0,16.0,43,0.00,,,0.00,meteohub,2013-05-03 05:27:00,
2013-05-03 01:32:00,65.1,42.6,30.15,South,185,4.0,16.0,44,0.00,,,0.00,meteohub,2013-05-03 05:32:00,
2013-05-03 01:37:00,64.9,42.4,30.15,SSE,147,7.0,16.0,44,0.00,,,0.00,meteohub,2013-05-03 05:37:00,
2013-05-03 01:42:00,64.9,42.4,30.15,North,0,1.0,15.0,44,0.00,,,0.00,meteohub,2013-05-03 05:42:00,
2013-05-03 01:47:00,64.8,43.0,30.15,South,185,3.0,18.0,45,0.00,,,0.00,meteohub,2013-05-03 05:47:00,
2013-05-03 01:52:00,64.8,43.0,30.15,SE,128,5.0,18.0,45,0.00,,,0.00,meteohub,2013-05-03 05:52:00,
2013-05-03 01:58:00,64.6,42.8,30.15,South,182,7.0,18.0,45,0.00,,,0.00,meteohub,2013-05-03 05:58:00,
2013-05-03 02:03:00,64.6,43.3,30.15,South,172,3.0,14.0,46,0.00,,,0.00,meteohub,2013-05-03 06:03:00,
2013-05-03 02:08:00,64.4,43.2,30.15,South,186,10.0,16.0,46,0.00,,,0.00,meteohub,2013-05-03 06:08:00,
2013-05-03 02:13:00,64.2,43.0,30.15,SSE,157,7.0,17.0,46,0.00,,,0.00,meteohub,2013-05-03 06:13:00,
2013-05-03 02:18:00,64.0,43.3,30.14,South,171,6.0,18.0,47,0.00,,,0.00,meteohub,2013-05-03 06:18:00,
2013-05-03 02:23:00,64.0,43.3,30.14,SSE,160,5.0,18.0,47,0.00,,,0.00,meteohub,2013-05-03 06:23:00,
2013-05-03 02:28:00,64.0,43.9,30.14,South,178,14.0,18.0,48,0.00,,,0.00,meteohub,2013-05-03 06:28:00,
2013-05-03 02:33:00,64.0,43.9,30.14,SE,135,3.0,18.0,48,0.00,,,0.00,meteohub,2013-05-03 06:33:00,
2013-05-03 02:38:00,63.9,44.2,30.14,SE,144,7.0,19.0,49,0.00,,,0.00,meteohub,2013-05-03 06:38:00,
2013-05-03 02:43:00,63.7,44.8,30.14,SSE,155,16.0,19.0,50,0.00,,,0.00,meteohub,2013-05-03 06:43:00,
2013-05-03 02:48:00,63.5,44.6,30.14,SSE,166,8.0,20.0,50,0.00,,,0.00,meteohub,2013-05-03 06:48:00,
2013-05-03 02:53:00,63.3,45.0,30.14,South,186,18.0,20.0,51,0.00,,,0.00,meteohub,2013-05-03 06:53:00,
2013-05-03 02:58:00,63.3,45.3,30.14,SE,132,9.0,21.0,52,0.00,,,0.00,meteohub,2013-05-03 06:58:00,
2013-05-03 03:03:00,63.1,45.1,30.14,South,169,10.0,23.0,52,0.00,,,0.00,meteohub,2013-05-03 07:03:00,
2013-05-03 03:09:00,63.1,45.7,30.14,South,188,14.0,23.0,53,0.00,,,0.00,meteohub,2013-05-03 07:09:00,
2013-05-03 03:14:00,63.1,45.7,30.13,SSE,162,9.0,23.0,53,0.00,,,0.00,meteohub,2013-05-03 07:14:00,
2013-05-03 03:19:00,63.0,46.0,30.13,South,185,16.0,23.0,54,0.00,,,0.00,meteohub,2013-05-03 07:19:00,
2013-05-03 03:24:00,62.8,45.3,30.13,SSW,197,23.0,26.0,53,0.00,,,0.00,meteohub,2013-05-03 07:24:00,
2013-05-03 03:29:00,62.8,45.9,30.13,South,179,15.0,26.0,54,0.00,,,0.00,meteohub,2013-05-03 07:29:00,
2013-05-03 03:34:00,62.6,45.7,30.13,SSE,155,15.0,26.0,54,0.00,,,0.00,meteohub,2013-05-03 07:34:00,
2013-05-03 03:39:00,62.4,45.5,30.13,SSE,163,14.0,24.0,54,0.00,,,0.00,meteohub,2013-05-03 07:39:00,
2013-05-03 03:44:00,62.2,45.3,30.12,SSW,193,16.0,23.0,54,0.00,,,0.00,meteohub,2013-05-03 07:44:00,
2013-05-03 03:49:00,62.2,45.9,30.13,South,188,25.0,25.0,55,0.00,,,0.00,meteohub,2013-05-03 07:49:00,
2013-05-03 03:54:00,62.1,45.7,30.13,SSW,211,9.0,23.0,55,0.00,,,0.00,meteohub,2013-05-03 07:54:00,
2013-05-03 03:59:00,62.1,45.7,30.12,South,177,10.0,26.0,55,0.00,,,0.00,meteohub,2013-05-03 07:59:00,
2013-05-03 04:04:00,62.1,46.2,30.12,SSE,167,18.0,26.0,56,0.00,,,0.00,meteohub,2013-05-03 08:04:00,
2013-05-03 04:09:00,61.9,46.0,30.12,South,188,9.0,29.0,56,0.00,,,0.00,meteohub,2013-05-03 08:09:00,
2013-05-03 04:14:00,61.9,46.0,30.12,SSE,159,12.0,29.0,56,0.00,,,0.00,meteohub,2013-05-03 08:14:00,
2013-05-03 04:19:00,61.9,46.0,30.12,South,174,10.0,29.0,56,0.00,,,0.00,meteohub,2013-05-03 08:19:00,
2013-05-03 04:24:00,61.7,46.4,30.12,South,181,16.0,29.0,57,0.00,,,0.00,meteohub,2013-05-03 08:24:00,
2013-05-03 04:29:00,61.5,46.2,30.12,North,0,15.0,29.0,57,0.00,,,0.00,meteohub,2013-05-03 08:29:00,
2013-05-03 04:35:00,61.5,46.2,30.12,SE,132,20.0,27.0,57,0.00,,,0.00,meteohub,2013-05-03 08:35:00,
2013-05-03 04:40:00,61.5,46.2,30.12,SSE,163,16.0,26.0,57,0.00,,,0.00,meteohub,2013-05-03 08:40:00,
2013-05-03 04:45:00,61.5,46.2,30.12,North,0,17.0,26.0,57,0.00,,,0.00,meteohub,2013-05-03 08:45:00,
2013-05-03 04:50:00,61.3,46.0,30.12,SE,145,12.0,26.0,57,0.00,,,0.00,meteohub,2013-05-03 08:50:00,
2013-05-03 04:55:00,61.2,45.9,30.12,SSW,205,10.0,29.0,57,0.00,,,0.00,meteohub,2013-05-03 08:55:00,
2013-05-03 05:00:00,61.2,45.9,30.12,SE,146,13.0,28.0,57,0.00,,,0.00,meteohub,2013-05-03 09:00:00,
2013-05-03 05:05:00,61.0,45.7,30.12,SSW,198,21.0,28.0,57,0.00,,,0.00,meteohub,2013-05-03 09:05:00,
2013-05-03 05:10:00,61.0,45.7,30.12,South,169,10.0,28.0,57,0.00,,,0.00,meteohub,2013-05-03 09:10:00,
2013-05-03 05:15:00,60.8,45.5,30.13,North,0,16.0,25.0,57,0.00,,,0.00,meteohub,2013-05-03 09:15:00,
2013-05-03 05:20:00,60.6,45.3,30.12,SSE,167,13.0,22.0,57,0.00,,,0.00,meteohub,2013-05-03 09:20:00,
2013-05-03 05:25:00,60.4,45.1,30.12,SSE,154,17.0,27.0,57,0.00,,,0.00,meteohub,2013-05-03 09:25:00,
2013-05-03 05:31:00,60.4,45.1,30.12,SSE,163,13.0,27.0,57,0.00,,,0.00,meteohub,2013-05-03 09:31:00,
2013-05-03 05:36:00,60.4,45.1,30.12,SE,142,7.0,28.0,57,0.00,,,0.00,meteohub,2013-05-03 09:36:00,
2013-05-03 05:41:00,60.4,44.6,30.13,SSE,149,13.0,28.0,56,0.00,,,0.00,meteohub,2013-05-03 09:41:00,
2013-05-03 05:46:00,60.4,44.6,30.13,South,174,12.0,28.0,56,0.00,,,0.00,meteohub,2013-05-03 09:46:00,
2013-05-03 05:51:00,60.3,45.0,30.13,North,0,12.0,24.0,57,0.00,,,0.00,meteohub,2013-05-03 09:51:00,
2013-05-03 05:56:00,60.1,44.8,30.14,SSW,196,17.0,24.0,57,0.00,,,0.00,meteohub,2013-05-03 09:56:00,
2013-05-03 06:01:00,60.1,44.8,30.14,SSE,166,16.0,30.0,57,0.00,,,0.00,meteohub,2013-05-03 10:01:00,
2013-05-03 06:06:00,59.9,45.1,30.14,South,187,20.0,33.0,58,0.00,,,0.00,meteohub,2013-05-03 10:06:00,
2013-05-03 06:11:00,59.7,44.4,30.14,South,171,19.0,33.0,57,0.00,,,0.00,meteohub,2013-05-03 10:11:00,
2013-05-03 06:16:00,59.9,44.6,30.14,South,178,15.0,26.0,57,0.00,,,0.00,meteohub,2013-05-03 10:16:00,
2013-05-03 06:21:00,59.7,44.4,30.14,SSE,154,10.0,29.0,57,0.00,,,0.00,meteohub,2013-05-03 10:21:00,
2013-05-03 06:26:00,59.9,44.6,30.14,South,182,17.0,29.0,57,0.00,,,0.00,meteohub,2013-05-03 10:26:00,
2013-05-03 06:31:00,59.7,44.4,30.14,SSE,147,18.0,29.0,57,0.00,,,0.00,meteohub,2013-05-03 10:31:00,
2013-05-03 06:36:00,59.7,45.0,30.14,South,170,14.0,25.0,58,0.00,,,0.00,meteohub,2013-05-03 10:36:00,
2013-05-03 06:42:00,59.5,44.8,30.14,South,169,9.0,26.0,58,0.00,,,0.00,meteohub,2013-05-03 10:42:00,
2013-05-03 06:47:00,59.5,45.1,30.15,SSE,163,9.0,26.0,59,0.00,,,0.00,meteohub,2013-05-03 10:47:00,
2013-05-03 06:52:00,59.5,44.8,30.15,SSE,157,17.0,26.0,58,0.00,,,0.00,meteohub,2013-05-03 10:52:00,
2013-05-03 06:57:00,59.7,45.0,30.14,North,0,23.0,27.0,58,0.00,,,0.00,meteohub,2013-05-03 10:57:00,
2013-05-03 07:02:00,60.3,44.4,30.15,SSE,150,13.0,27.0,56,0.00,,,0.00,meteohub,2013-05-03 11:02:00,
2013-05-03 07:07:00,60.4,44.6,30.15,SSE,149,12.0,30.0,56,0.00,,,0.00,meteohub,2013-05-03 11:07:00,
2013-05-03 07:12:00,60.4,44.2,30.15,South,174,17.0,30.0,55,0.00,,,0.00,meteohub,2013-05-03 11:12:00,
2013-05-03 07:17:00,60.8,44.1,30.15,South,180,17.0,30.0,54,0.00,,,0.00,meteohub,2013-05-03 11:17:00,
2013-05-03 07:22:00,61.0,44.2,30.15,SSE,165,15.0,26.0,54,0.00,,,0.00,meteohub,2013-05-03 11:22:00,
2013-05-03 07:27:00,61.2,43.9,30.15,South,190,12.0,25.0,53,0.00,,,0.00,meteohub,2013-05-03 11:27:00,
2013-05-03 07:32:00,61.2,44.4,30.15,SSW,195,18.0,27.0,54,0.00,,,0.00,meteohub,2013-05-03 11:32:00,
2013-05-03 07:37:00,61.2,44.4,30.15,SSE,159,14.0,28.0,54,0.00,,,0.00,meteohub,2013-05-03 11:37:00,
2013-05-03 07:43:00,61.0,44.2,30.15,South,171,10.0,28.0,54,0.00,,,0.00,meteohub,2013-05-03 11:43:00,
2013-05-03 07:48:00,61.0,44.2,30.15,SSE,157,15.0,27.0,54,0.00,,,0.00,meteohub,2013-05-03 11:48:00,
2013-05-03 07:53:00,61.0,44.2,30.16,South,182,16.0,27.0,54,0.00,,,0.00,meteohub,2013-05-03 11:53:00,
2013-05-03 07:58:00,61.2,44.4,30.16,SSE,162,12.0,27.0,54,0.00,,,0.00,meteohub,2013-05-03 11:58:00,
2013-05-03 08:03:00,61.3,44.6,30.16,SSE,159,9.0,25.0,54,0.00,,,0.00,meteohub,2013-05-03 12:03:00,
2013-05-03 08:08:00,61.5,44.8,30.16,South,169,15.0,26.0,54,0.00,,,0.00,meteohub,2013-05-03 12:08:00,
2013-05-03 08:13:00,61.7,45.0,30.16,SSE,148,7.0,26.0,54,0.00,,,0.00,meteohub,2013-05-03 12:13:00,
2013-05-03 08:18:00,62.1,44.8,30.17,SE,134,16.0,26.0,53,0.00,,,0.00,meteohub,2013-05-03 12:18:00,
2013-05-03 08:23:00,62.2,45.0,30.17,SE,126,12.0,27.0,53,0.00,,,0.00,meteohub,2013-05-03 12:23:00,
2013-05-03 08:28:00,62.2,45.3,30.17,ESE,107,7.0,27.0,54,0.00,,,0.00,meteohub,2013-05-03 12:28:00,
2013-05-03 08:33:00,62.1,45.1,30.17,SE,126,10.0,27.0,54,0.00,,,0.00,meteohub,2013-05-03 12:33:00,
2013-05-03 08:39:00,62.2,45.3,30.17,South,179,3.0,21.0,54,0.00,,,0.00,meteohub,2013-05-03 12:39:00,
2013-05-03 08:44:00,62.4,45.5,30.17,ESE,107,10.0,20.0,54,0.00,,,0.00,meteohub,2013-05-03 12:44:00,
2013-05-03 08:49:00,62.8,45.3,30.18,SSE,153,15.0,22.0,53,0.00,,,0.00,meteohub,2013-05-03 12:49:00,
2013-05-03 08:54:00,62.8,45.9,30.18,SE,130,14.0,27.0,54,0.00,,,0.00,meteohub,2013-05-03 12:54:00,
2013-05-03 08:59:00,63.0,45.5,30.18,South,172,6.0,27.0,53,0.00,,,0.00,meteohub,2013-05-03 12:59:00,
2013-05-03 09:04:00,63.3,45.3,30.18,SE,126,8.0,27.0,52,0.00,,,0.00,meteohub,2013-05-03 13:04:00,
2013-05-03 09:09:00,63.7,45.7,30.18,SE,146,14.0,23.0,52,0.00,,,0.00,meteohub,2013-05-03 13:09:00,
2013-05-03 09:14:00,63.9,45.9,30.18,South,171,13.0,23.0,52,0.00,,,0.00,meteohub,2013-05-03 13:14:00,
2013-05-03 09:19:00,64.4,45.3,30.18,SE,132,15.0,23.0,50,0.00,,,0.00,meteohub,2013-05-03 13:19:00,
2013-05-03 09:24:00,64.8,45.7,30.18,South,169,13.0,23.0,50,0.00,,,0.00,meteohub,2013-05-03 13:24:00,
2013-05-03 09:29:00,65.1,45.0,30.18,North,0,11.0,24.0,48,0.00,,,0.00,meteohub,2013-05-03 13:29:00,
2013-05-03 09:34:00,65.1,45.5,30.17,SE,138,19.0,29.0,49,0.00,,,0.00,meteohub,2013-05-03 13:34:00,
2013-05-03 09:39:00,65.3,45.7,30.17,SSE,149,16.0,30.0,49,0.00,,,0.00,meteohub,2013-05-03 13:39:00,
2013-05-03 09:44:00,65.5,45.9,30.18,South,173,14.0,30.0,49,0.00,,,0.00,meteohub,2013-05-03 13:44:00,
2013-05-03 09:49:00,65.7,46.0,30.17,SSE,164,8.0,30.0,49,0.00,,,0.00,meteohub,2013-05-03 13:49:00,
2013-05-03 09:54:00,65.8,45.7,30.17,SSE,153,10.0,23.0,48,0.00,,,0.00,meteohub,2013-05-03 13:54:00,
2013-05-03 09:59:00,66.2,46.4,30.17,SE,142,10.0,20.0,49,0.00,,,0.00,meteohub,2013-05-03 13:59:00,
2013-05-03 10:04:00,66.6,45.7,30.17,SE,146,12.0,19.0,47,0.00,,,0.00,meteohub,2013-05-03 14:04:00,
2013-05-03 10:09:00,66.7,45.9,30.17,South,176,21.0,21.0,47,0.00,,,0.00,meteohub,2013-05-03 14:09:00,
2013-05-03 10:14:00,66.9,45.5,30.17,SSE,160,18.0,22.0,46,0.00,,,0.00,meteohub,2013-05-03 14:14:00,
2013-05-03 10:19:00,66.9,45.0,30.17,SSW,202,22.0,27.0,45,0.00,,,0.00,meteohub,2013-05-03 14:19:00,
2013-05-03 10:25:00,67.3,44.6,30.17,South,176,14.0,27.0,44,0.00,,,0.00,meteohub,2013-05-03 14:25:00,
2013-05-03 10:30:00,67.5,44.8,30.17,SE,131,22.0,29.0,44,0.00,,,0.00,meteohub,2013-05-03 14:30:00,
2013-05-03 10:35:00,67.6,45.0,30.17,SSE,156,24.0,29.0,44,0.00,,,0.00,meteohub,2013-05-03 14:35:00,
2013-05-03 10:40:00,67.8,45.7,30.17,SE,136,15.0,25.0,45,0.00,,,0.00,meteohub,2013-05-03 14:40:00,
2013-05-03 10:45:00,68.2,45.5,30.17,SSE,151,14.0,24.0,44,0.00,,,0.00,meteohub,2013-05-03 14:45:00,
2013-05-03 10:50:00,68.2,45.5,30.17,SSE,158,17.0,24.0,44,0.00,,,0.00,meteohub,2013-05-03 14:50:00,
2013-05-03 10:55:00,68.5,45.1,30.17,South,181,10.0,23.0,43,0.00,,,0.00,meteohub,2013-05-03 14:55:00,
2013-05-03 11:00:00,69.3,46.4,30.17,SSE,154,17.0,23.0,44,0.00,,,0.00,meteohub,2013-05-03 15:00:00,
2013-05-03 11:05:00,69.4,46.0,30.17,South,174,5.0,20.0,43,0.00,,,0.00,meteohub,2013-05-03 15:05:00,
2013-05-03 11:10:00,69.4,45.3,30.17,SE,142,7.0,19.0,42,0.00,,,0.00,meteohub,2013-05-03 15:10:00,
2013-05-03 11:15:00,69.8,45.7,30.17,SSE,163,11.0,19.0,42,0.00,,,0.00,meteohub,2013-05-03 15:15:00,
2013-05-03 11:20:00,70.0,46.4,30.17,SSE,154,16.0,20.0,43,0.00,,,0.00,meteohub,2013-05-03 15:20:00,
2013-05-03 11:25:00,70.0,45.1,30.17,South,189,14.0,22.0,41,0.00,,,0.00,meteohub,2013-05-03 15:25:00,
2013-05-03 11:30:00,70.5,45.7,30.17,SSE,150,7.0,22.0,41,0.00,,,0.00,meteohub,2013-05-03 15:30:00,
2013-05-03 11:35:00,70.3,45.5,30.17,SE,141,11.0,22.0,41,0.00,,,0.00,meteohub,2013-05-03 15:35:00,
2013-05-03 11:40:00,70.9,45.3,30.16,SE,146,10.0,20.0,40,0.00,,,0.00,meteohub,2013-05-03 15:40:00,
2013-05-03 11:45:00,71.1,46.2,30.16,South,190,10.0,22.0,41,0.00,,,0.00,meteohub,2013-05-03 15:45:00,
2013-05-03 11:50:00,71.1,45.5,30.16,South,188,12.0,22.0,40,0.00,,,0.00,meteohub,2013-05-03 15:50:00,
2013-05-03 11:55:00,71.4,45.9,30.16,North,0,17.0,23.0,40,0.00,,,0.00,meteohub,2013-05-03 15:55:00,
2013-05-03 12:01:00,71.4,45.9,30.16,South,169,5.0,23.0,40,0.00,,,0.00,meteohub,2013-05-03 16:01:00,
2013-05-03 12:06:00,71.8,45.5,30.16,SE,138,5.0,20.0,39,0.00,,,0.00,meteohub,2013-05-03 16:06:00,
2013-05-03 12:11:00,71.8,46.2,30.16,SW,220,9.0,20.0,40,0.00,,,0.00,meteohub,2013-05-03 16:11:00,
2013-05-03 12:16:00,71.8,46.2,30.16,SE,136,13.0,20.0,40,0.00,,,0.00,meteohub,2013-05-03 16:16:00,
2013-05-03 12:21:00,72.0,46.4,30.16,South,183,16.0,23.0,40,0.00,,,0.00,meteohub,2013-05-03 16:21:00,
2013-05-03 12:26:00,72.1,46.4,30.15,South,180,6.0,25.0,40,0.00,,,0.00,meteohub,2013-05-03 16:26:00,
2013-05-03 12:31:00,72.7,46.9,30.15,South,172,13.0,25.0,40,0.00,,,0.00,meteohub,2013-05-03 16:31:00,
2013-05-03 12:36:00,72.9,47.1,30.15,SSE,164,11.0,26.0,40,0.00,,,0.00,meteohub,2013-05-03 16:36:00,
2013-05-03 12:41:00,73.0,46.6,30.15,South,169,15.0,26.0,39,0.00,,,0.00,meteohub,2013-05-03 16:41:00,
2013-05-03 12:46:00,73.4,47.7,30.14,SW,219,14.0,25.0,40,0.00,,,0.00,meteohub,2013-05-03 16:46:00,
2013-05-03 12:51:00,73.4,47.7,30.14,SE,130,12.0,25.0,40,0.00,,,0.00,meteohub,2013-05-03 16:51:00,
2013-05-03 12:56:00,73.6,47.8,30.14,South,190,4.0,24.0,40,0.00,,,0.00,meteohub,2013-05-03 16:56:00,
2013-05-03 13:01:00,73.6,47.1,30.14,South,180,7.0,24.0,39,0.00,,,0.00,meteohub,2013-05-03 17:01:00,
2013-05-03 13:06:00,73.8,47.3,30.14,South,188,9.0,23.0,39,0.00,,,0.00,meteohub,2013-05-03 17:06:00,
2013-05-03 13:11:00,74.1,48.9,30.13,SSE,148,13.0,23.0,41,0.00,,,0.00,meteohub,2013-05-03 17:11:00,
2013-05-03 13:16:00,74.1,48.9,30.13,North,0,23.0,23.0,41,0.00,,,0.00,meteohub,2013-05-03 17:16:00,
2013-05-03 13:21:00,74.1,48.2,30.13,SW,215,15.0,23.0,40,0.00,,,0.00,meteohub,2013-05-03 17:21:00,
2013-05-03 13:26:00,74.5,49.3,30.13,ESE,123,9.0,23.0,41,0.00,,,0.00,meteohub,2013-05-03 17:26:00,
2013-05-03 13:31:00,75.0,49.6,30.13,SSW,205,5.0,23.0,41,0.00,,,0.00,meteohub,2013-05-03 17:31:00,
2013-05-03 13:37:00,75.0,49.1,30.13,North,0,6.0,20.0,40,0.00,,,0.00,meteohub,2013-05-03 17:37:00,
2013-05-03 13:42:00,75.2,49.3,30.12,South,171,10.0,20.0,40,0.00,,,0.00,meteohub,2013-05-03 17:42:00,
2013-05-03 13:47:00,75.4,48.7,30.12,SSE,159,15.0,20.0,39,0.00,,,0.00,meteohub,2013-05-03 17:47:00,
2013-05-03 13:52:00,75.4,49.5,30.12,South,180,6.0,23.0,40,0.00,,,0.00,meteohub,2013-05-03 17:52:00,
2013-05-03 13:57:00,75.6,50.2,30.12,SSE,149,14.0,23.0,41,0.00,,,0.00,meteohub,2013-05-03 17:57:00,
2013-05-03 14:02:00,75.6,49.5,30.12,SSE,148,11.0,23.0,40,0.00,,,0.00,meteohub,2013-05-03 18:02:00,
2013-05-03 14:07:00,75.4,50.0,30.12,North,0,16.0,21.0,41,0.00,,,0.00,meteohub,2013-05-03 18:07:00,
2013-05-03 14:12:00,75.4,50.0,30.12,SSE,152,10.0,22.0,41,0.00,,,0.00,meteohub,2013-05-03 18:12:00,
2013-05-03 14:17:00,75.6,50.2,30.11,SSE,160,19.0,25.0,41,0.00,,,0.00,meteohub,2013-05-03 18:17:00,
2013-05-03 14:22:00,75.6,50.2,30.11,SSW,196,7.0,25.0,41,0.00,,,0.00,meteohub,2013-05-03 18:22:00,
2013-05-03 14:27:00,75.9,50.5,30.11,SSE,160,11.0,25.0,41,0.00,,,0.00,meteohub,2013-05-03 18:27:00,
2013-05-03 14:32:00,76.3,50.9,30.11,SE,126,15.0,23.0,41,0.00,,,0.00,meteohub,2013-05-03 18:32:00,
2013-05-03 14:37:00,76.1,50.7,30.11,North,0,7.0,20.0,41,0.00,,,0.00,meteohub,2013-05-03 18:37:00,
2013-05-03 14:42:00,76.1,50.0,30.11,SSE,147,6.0,22.0,40,0.00,,,0.00,meteohub,2013-05-03 18:42:00,
2013-05-03 14:47:00,75.9,50.5,30.11,SSE,161,9.0,22.0,41,0.00,,,0.00,meteohub,2013-05-03 18:47:00,
2013-05-03 14:52:00,75.9,51.3,30.11,SSE,167,15.0,22.0,42,0.00,,,0.00,meteohub,2013-05-03 18:52:00,
2013-05-03 14:57:00,76.6,50.5,30.11,South,179,7.0,22.0,40,0.00,,,0.00,meteohub,2013-05-03 18:57:00,
2013-05-03 15:02:00,76.5,51.1,30.11,SSE,164,14.0,18.0,41,0.00,,,0.00,meteohub,2013-05-03 19:02:00,
2013-05-03 15:07:00,76.6,51.3,30.10,SE,131,13.0,18.0,41,0.00,,,0.00,meteohub,2013-05-03 19:07:00,
2013-05-03 15:12:00,76.8,51.3,30.11,SSE,168,11.0,17.0,41,0.00,,,0.00,meteohub,2013-05-03 19:12:00,
2013-05-03 15:17:00,76.8,50.7,30.10,ESE,111,13.0,20.0,40,0.00,,,0.00,meteohub,2013-05-03 19:17:00,
2013-05-03 15:22:00,76.6,51.3,30.10,SE,132,21.0,21.0,41,0.00,,,0.00,meteohub,2013-05-03 19:22:00,
2013-05-03 15:27:00,76.6,50.5,30.10,SE,140,17.0,22.0,40,0.00,,,0.00,meteohub,2013-05-03 19:27:00,
2013-05-03 15:32:00,76.8,50.7,30.09,ESE,107,14.0,24.0,40,0.00,,,0.00,meteohub,2013-05-03 19:32:00,
2013-05-03 15:37:00,77.2,49.6,30.09,SSE,166,15.0,24.0,38,0.00,,,0.00,meteohub,2013-05-03 19:37:00,
2013-05-03 15:42:00,77.4,49.8,30.09,SSE,158,12.0,24.0,38,0.00,,,0.00,meteohub,2013-05-03 19:42:00,
2013-05-03 15:47:00,77.5,50.0,30.09,South,170,13.0,21.0,38,0.00,,,0.00,meteohub,2013-05-03 19:47:00,
2013-05-03 15:52:00,77.7,49.5,30.09,South,171,13.0,24.0,37,0.00,,,0.00,meteohub,2013-05-03 19:52:00,
2013-05-03 15:57:00,77.2,49.6,30.09,SE,132,7.0,27.0,38,0.00,,,0.00,meteohub,2013-05-03 19:57:00,
2013-05-03 16:02:00,77.4,49.8,30.09,SE,134,8.0,27.0,38,0.00,,,0.00,meteohub,2013-05-03 20:02:00,
2013-05-03 16:07:00,77.7,50.0,30.09,South,172,11.0,27.0,38,0.00,,,0.00,meteohub,2013-05-03 20:07:00,
2013-05-03 16:12:00,77.9,49.5,30.08,South,191,12.0,20.0,37,0.00,,,0.00,meteohub,2013-05-03 20:12:00,
2013-05-03 16:17:00,77.9,49.5,30.08,SE,125,12.0,20.0,37,0.00,,,0.00,meteohub,2013-05-03 20:17:00,
2013-05-03 16:22:00,77.5,49.3,30.08,SE,139,4.0,20.0,37,0.00,,,0.00,meteohub,2013-05-03 20:22:00,
2013-05-03 16:27:00,77.5,50.0,30.08,ESE,116,4.0,20.0,38,0.00,,,0.00,meteohub,2013-05-03 20:27:00,
2013-05-03 16:32:00,77.5,50.0,30.08,SSE,168,5.0,20.0,38,0.00,,,0.00,meteohub,2013-05-03 20:32:00,
2013-05-03 16:37:00,77.7,49.5,30.08,SSE,157,12.0,17.0,37,0.00,,,0.00,meteohub,2013-05-03 20:37:00,
2013-05-03 16:42:00,78.1,49.6,30.08,SSW,201,14.0,20.0,37,0.00,,,0.00,meteohub,2013-05-03 20:42:00,
2013-05-03 16:47:00,77.7,49.5,30.08,SE,133,2.0,20.0,37,0.00,,,0.00,meteohub,2013-05-03 20:47:00,
2013-05-03 16:52:00,77.4,49.1,30.08,North,0,13.0,19.0,37,0.00,,,0.00,meteohub,2013-05-03 20:52:00,
2013-05-03 16:57:00,77.5,49.3,30.08,ESE,121,5.0,19.0,37,0.00,,,0.00,meteohub,2013-05-03 20:57:00,
2013-05-03 17:02:00,77.7,50.0,30.08,South,191,7.0,19.0,38,0.00,,,0.00,meteohub,2013-05-03 21:02:00,
2013-05-03 17:07:00,78.1,49.6,30.08,South,177,2.0,19.0,37,0.00,,,0.00,meteohub,2013-05-03 21:07:00,
2013-05-03 17:12:00,76.6,50.5,30.08,ENE,78,2.0,14.0,40,0.00,,,0.00,meteohub,2013-05-03 21:12:00,
2013-05-03 17:17:00,77.2,51.1,30.07,SSE,150,2.0,15.0,40,0.00,,,0.00,meteohub,2013-05-03 21:17:00,
2013-05-03 17:22:00,78.1,50.4,30.07,SE,141,6.0,16.0,38,0.00,,,0.00,meteohub,2013-05-03 21:22:00,
2013-05-03 17:27:00,77.5,49.3,30.07,ESE,123,5.0,17.0,37,0.00,,,0.00,meteohub,2013-05-03 21:27:00,
2013-05-03 17:32:00,70.9,50.7,30.08,ENE,59,11.0,17.0,49,0.00,,,0.00,meteohub,2013-05-03 21:32:00,
2013-05-03 17:37:00,68.7,50.4,30.08,East,82,11.0,16.0,52,0.00,,,0.00,meteohub,2013-05-03 21:37:00,
2013-05-03 17:42:00,68.2,52.9,30.08,ENE,60,10.0,15.0,58,0.00,,,0.00,meteohub,2013-05-03 21:42:00,
2013-05-03 17:47:00,69.4,49.5,30.08,ENE,72,11.0,15.0,49,0.00,,,0.00,meteohub,2013-05-03 21:47:00,
2013-05-03 17:52:00,66.6,52.7,30.08,ENE,59,10.0,16.0,61,0.00,,,0.00,meteohub,2013-05-03 21:52:00,
2013-05-03 17:57:00,68.5,51.3,30.08,ENE,61,14.0,17.0,54,0.00,,,0.00,meteohub,2013-05-03 21:57:00,
2013-05-03 18:02:00,66.4,52.2,30.08,ENE,67,14.0,17.0,60,0.00,,,0.00,meteohub,2013-05-03 22:02:00,
2013-05-03 18:07:00,64.2,52.2,30.08,NE,44,13.0,18.0,65,0.00,,,0.00,meteohub,2013-05-03 22:07:00,
2013-05-03 18:12:00,63.1,52.3,30.09,East,85,5.0,18.0,68,0.00,,,0.00,meteohub,2013-05-03 22:12:00,
2013-05-03 18:17:00,61.7,51.8,30.09,East,82,13.0,18.0,70,0.00,,,0.00,meteohub,2013-05-03 22:17:00,
2013-05-03 18:22:00,61.3,49.8,30.09,East,83,10.0,19.0,66,0.00,,,0.00,meteohub,2013-05-03 22:22:00,
2013-05-03 18:27:00,60.4,49.8,30.09,ENE,66,10.0,19.0,68,0.00,,,0.00,meteohub,2013-05-03 22:27:00,
2013-05-03 18:32:00,60.4,50.5,30.09,ENE,72,12.0,17.0,70,0.00,,,0.00,meteohub,2013-05-03 22:32:00,
2013-05-03 18:37:00,60.6,50.7,30.09,ENE,68,12.0,14.0,70,0.00,,,0.00,meteohub,2013-05-03 22:37:00,
2013-05-03 18:42:00,60.3,50.0,30.09,ENE,73,10.0,14.0,69,0.00,,,0.00,meteohub,2013-05-03 22:42:00,
2013-05-03 18:47:00,59.9,50.9,30.09,ENE,78,6.0,13.0,72,0.00,,,0.00,meteohub,2013-05-03 22:47:00,
2013-05-03 18:52:00,60.4,51.1,30.09,ENE,78,6.0,13.0,71,0.00,,,0.00,meteohub,2013-05-03 22:52:00,
2013-05-03 18:57:00,60.8,50.5,30.09,ENE,68,11.0,11.0,69,0.00,,,0.00,meteohub,2013-05-03 22:57:00,
2013-05-03 19:02:00,60.6,51.1,30.09,East,84,7.0,12.0,71,0.00,,,0.00,meteohub,2013-05-03 23:02:00,
2013-05-03 19:07:00,60.6,50.7,30.09,ENE,69,11.0,14.0,70,0.00,,,0.00,meteohub,2013-05-03 23:07:00,
2013-05-03 19:12:00,60.4,50.5,30.09,ENE,69,6.0,14.0,70,0.00,,,0.00,meteohub,2013-05-03 23:12:00,
2013-05-03 19:17:00,60.4,51.1,30.09,East,82,11.0,14.0,71,0.00,,,0.00,meteohub,2013-05-03 23:17:00,
2013-05-03 19:22:00,60.4,51.1,30.09,ENE,71,9.0,12.0,71,0.00,,,0.00,meteohub,2013-05-03 23:22:00,
2013-05-03 19:27:00,60.4,51.4,30.09,ENE,68,11.0,12.0,72,0.00,,,0.00,meteohub,2013-05-03 23:27:00,
2013-05-03 19:32:00,60.4,51.4,30.09,ENE,69,9.0,12.0,72,0.00,,,0.00,meteohub,2013-05-03 23:32:00,
2013-05-03 19:37:00,60.6,51.6,30.09,ENE,75,6.0,12.0,72,0.00,,,0.00,meteohub,2013-05-03 23:37:00,
2013-05-03 19:42:00,61.0,52.0,30.10,ENE,75,5.0,12.0,72,0.00,,,0.00,meteohub,2013-05-03 23:42:00,
2013-05-03 19:47:00,61.3,51.8,30.09,ENE,74,4.0,11.0,71,0.00,,,0.00,meteohub,2013-05-03 23:47:00,
2013-05-03 19:52:00,61.3,51.4,30.10,ENE,75,3.0,7.0,70,0.00,,,0.00,meteohub,2013-05-03 23:52:00,
2013-05-03 19:57:00,61.5,51.3,30.10,ENE,75,4.0,7.0,69,0.00,,,0.00,meteohub,2013-05-03 23:57:00,
2013-05-03 20:02:00,61.3,51.1,30.09,ENE,75,4.0,5.0,69,0.00,,,0.00,meteohub,2013-05-04 00:02:00,
2013-05-03 20:07:00,61.9,50.0,30.10,ENE,76,4.0,5.0,65,0.00,,,0.00,meteohub,2013-05-04 00:07:00,
2013-05-03 20:12:00,61.7,51.1,30.10,ENE,76,3.0,5.0,68,0.00,,,0.00,meteohub,2013-05-04 00:12:00,
2013-05-03 20:17:00,61.5,51.3,30.10,ENE,76,3.0,5.0,69,0.00,,,0.00,meteohub,2013-05-04 00:17:00,
2013-05-03 20:22:00,61.3,51.8,30.10,ENE,75,2.0,5.0,71,0.00,,,0.00,meteohub,2013-05-04 00:22:00,
2013-05-03 20:27:00,61.0,52.0,30.10,ENE,74,5.0,5.0,72,0.00,,,0.00,meteohub,2013-05-04 00:27:00,
2013-05-03 20:32:00,61.2,51.3,30.10,ENE,74,7.0,7.0,70,0.00,,,0.00,meteohub,2013-05-04 00:32:00,
2013-05-03 20:37:00,61.0,51.4,30.11,ENE,77,7.0,9.0,71,0.00,,,0.00,meteohub,2013-05-04 00:37:00,
2013-05-03 20:42:00,60.4,50.5,30.11,East,84,9.0,10.0,70,0.00,,,0.00,meteohub,2013-05-04 00:42:00,
2013-05-03 20:47:00,60.4,49.8,30.11,East,92,7.0,11.0,68,0.00,,,0.00,meteohub,2013-05-04 00:47:00,
2013-05-03 20:52:00,60.3,49.6,30.11,East,86,6.0,11.0,68,0.00,,,0.00,meteohub,2013-05-04 00:52:00,
2013-05-03 20:57:00,59.7,49.5,30.11,East,84,6.0,10.0,69,0.00,,,0.00,meteohub,2013-05-04 00:57:00,
2013-05-03 21:02:00,59.5,49.8,30.11,East,81,6.0,9.0,70,0.00,,,0.00,meteohub,2013-05-04 01:02:00,
2013-05-03 21:07:00,59.7,48.7,30.11,East,81,6.0,7.0,67,0.00,,,0.00,meteohub,2013-05-04 01:07:00,
2013-05-03 21:12:00,59.5,50.5,30.12,East,80,5.0,7.0,72,0.00,,,0.00,meteohub,2013-05-04 01:12:00,
2013-05-03 21:17:00,59.0,51.4,30.12,ENE,78,3.0,7.0,76,0.00,,,0.00,meteohub,2013-05-04 01:17:00,
2013-05-03 21:22:00,58.6,51.1,30.12,ENE,78,3.0,6.0,76,0.00,,,0.00,meteohub,2013-05-04 01:22:00,
2013-05-03 21:27:00,58.6,51.1,30.12,ENE,78,0.0,6.0,76,0.00,,,0.00,meteohub,2013-05-04 01:27:00,
2013-05-03 21:32:00,58.6,51.4,30.12,ENE,78,0.0,5.0,77,0.00,,,0.00,meteohub,2013-05-04 01:32:00,
2013-05-03 21:37:00,58.6,51.1,30.12,ENE,78,0.0,3.0,76,0.00,,,0.00,meteohub,2013-05-04 01:37:00,
2013-05-03 21:42:00,58.8,52.0,30.12,ENE,78,0.0,2.0,78,0.00,,,0.00,meteohub,2013-05-04 01:42:00,
2013-05-03 21:47:00,59.0,51.1,30.12,East,79,0.0,1.0,75,0.00,,,0.00,meteohub,2013-05-04 01:47:00,
2013-05-03 21:52:00,61.7,51.1,30.12,East,90,0.0,1.0,68,0.00,,,0.00,meteohub,2013-05-04 01:52:00,
2013-05-03 21:57:00,64.6,51.3,30.12,East,94,0.0,5.0,62,0.00,,,0.00,meteohub,2013-05-04 01:57:00,
2013-05-03 22:02:00,66.4,50.7,30.12,SE,133,0.0,5.0,57,0.00,,,0.00,meteohub,2013-05-04 02:02:00,
2013-05-03 22:07:00,67.6,50.9,30.12,SSW,192,0.0,5.0,55,0.00,,,0.00,meteohub,2013-05-04 02:07:00,
2013-05-03 22:12:00,68.7,50.4,30.11,SSW,202,1.0,9.0,52,0.00,,,0.00,meteohub,2013-05-04 02:12:00,
2013-05-03 22:17:00,69.1,50.2,30.11,South,187,4.0,11.0,51,0.00,,,0.00,meteohub,2013-05-04 02:17:00,
2013-05-03 22:22:00,69.4,50.5,30.11,South,184,4.0,11.0,51,0.00,,,0.00,meteohub,2013-05-04 02:22:00,
2013-05-03 22:27:00,69.4,50.0,30.11,SSE,150,6.0,11.0,50,0.00,,,0.00,meteohub,2013-05-04 02:27:00,
2013-05-03 22:32:00,69.3,49.8,30.11,South,184,4.0,16.0,50,0.00,,,0.00,meteohub,2013-05-04 02:32:00,
2013-05-03 22:37:00,69.3,49.8,30.11,SSE,149,9.0,16.0,50,0.00,,,0.00,meteohub,2013-05-04 02:37:00,
2013-05-03 22:42:00,69.1,49.6,30.11,SSE,163,10.0,16.0,50,0.00,,,0.00,meteohub,2013-05-04 02:42:00,
2013-05-03 22:47:00,68.9,50.0,30.11,SSW,200,6.0,14.0,51,0.00,,,0.00,meteohub,2013-05-04 02:47:00,
2013-05-03 22:52:00,68.7,49.8,30.10,South,172,7.0,14.0,51,0.00,,,0.00,meteohub,2013-05-04 02:52:00,
2013-05-03 22:57:00,68.7,49.8,30.10,South,186,12.0,23.0,51,0.00,,,0.00,meteohub,2013-05-04 02:57:00,
2013-05-03 23:02:00,68.5,49.6,30.10,South,176,9.0,23.0,51,0.00,,,0.00,meteohub,2013-05-04 03:02:00,
2013-05-03 23:07:00,68.4,49.5,30.10,South,176,7.0,23.0,51,0.00,,,0.00,meteohub,2013-05-04 03:07:00,
2013-05-03 23:12:00,68.4,50.0,30.10,SSE,167,7.0,18.0,52,0.00,,,0.00,meteohub,2013-05-04 03:12:00,
2013-05-03 23:17:00,68.2,49.8,30.10,South,169,13.0,18.0,52,0.00,,,0.00,meteohub,2013-05-04 03:17:00,
2013-05-03 23:22:00,68.2,49.8,30.10,South,177,5.0,20.0,52,0.00,,,0.00,meteohub,2013-05-04 03:22:00,
2013-05-03 23:27:00,67.8,49.6,30.10,SSW,200,12.0,21.0,52,0.00,,,0.00,meteohub,2013-05-04 03:27:00,
2013-05-03 23:32:00,67.8,49.6,30.10,North,0,4.0,21.0,52,0.00,,,0.00,meteohub,2013-05-04 03:32:00,
2013-05-03 23:37:00,67.6,49.5,30.10,South,171,7.0,18.0,52,0.00,,,0.00,meteohub,2013-05-04 03:37:00,
2013-05-03 23:42:00,67.5,49.8,30.10,North,0,8.0,18.0,53,0.00,,,0.00,meteohub,2013-05-04 03:42:00,
2013-05-03 23:47:00,67.3,49.6,30.10,SSE,159,11.0,21.0,53,0.00,,,0.00,meteohub,2013-05-04 03:47:00,
2013-05-03 23:52:00,67.1,49.5,30.10,SSE,161,9.0,21.0,53,0.00,,,0.00,meteohub,2013-05-04 03:52:00,
2013-05-03 23:57:00,66.7,49.6,30.10,South,173,5.0,21.0,54,0.00,,,0.00,meteohub,2013-05-04 03:57:00,